Overview Statistics Trail Chart Weather Telemetry Raw packets
 

This is the latest recevied weather packets stored in our database for station/object R2AKT-13. If no packets are shown the sender has not sent any weather packets the latest 10 day(s).

<< 53 54 55 56 57 58 59 >>
Time Temp. Humidity Pressure Rain* Wind** Luminosity Snow
1787981256 13.89° C 69% 1001.9 hPa - 1.34 m/s, 178° - -
1787980696 13.33° C 69% 1002 hPa - 0.89 m/s, 166° - -
1787980126 12.78° C 71% 1002 hPa - 0.45 m/s, 156° - -
1787979573 12.78° C 71% 1002 hPa - 1.79 m/s, 173° - -
1787978993 12.78° C 71% 1002.1 hPa - 0.89 m/s, 183° - -
1787978511 12.78° C 71% 1002.1 hPa - 0.89 m/s, 192° - -
1787977966 12.78° C 72% 1002.1 hPa - 0.89 m/s, 182° - -
1787977378 12.22° C 72% 1002 hPa - 1.34 m/s, 166° - -
1787976846 12.22° C 72% 1002.1 hPa - 1.79 m/s, 158° - -
1787976356 12.22° C 72% 1002.1 hPa - 0.89 m/s, 188° - -
1787975761 12.22° C 73% 1002.1 hPa - 1.34 m/s, 159° - -
1787975261 12.22° C 73% 1002.1 hPa - 1.34 m/s, 153° - -
1787974771 12.78° C 73% 1002.1 hPa - 0.89 m/s, 159° - -
1787974291 12.22° C 72% 1002.1 hPa - 1.34 m/s, 139° - -
1787973705 12.22° C 73% 1002.1 hPa - 0.89 m/s, 166° - -
1787973171 12.22° C 72% 1002 hPa - 1.34 m/s, 157° - -
1787972621 12.78° C 72% 1002 hPa - 0.89 m/s, 191° - -
1787972046 12.78° C 72% 1002.1 hPa - 0.89 m/s, 177° - -
1787971466 12.78° C 72% 1002.1 hPa - 1.79 m/s, 163° - -
1787970911 12.78° C 72% 1002.1 hPa - 1.34 m/s, 157° - -
1787970316 12.78° C 72% 1002 hPa - 0.89 m/s, 158° - -
1787969736 12.78° C 72% 1002.1 hPa - 1.79 m/s, 157° - -
1787969176 12.78° C 72% 1002.1 hPa - 1.34 m/s, 191° - -
1787968611 12.78° C 73% 1002.2 hPa - 0.89 m/s, 174° - -
1787968051 12.78° C 72% 1002.1 hPa - 1.34 m/s, 154° - -

* Rain since midnight (hover to see other rain measurements)
** Current wind speed in m/s (hover to see current wind gust speed)